Tracking 20942 objects as of 15-Jul-2020
HD Live streaming from Space Station
objects crossing your sky now

COSMOS 2251 DEB

Track COSMOS 2251 DEB now!
10-day predictions


NORAD ID: 34035
Int'l Code: 1993-036HW
Perigee: 745.7 km
Apogee: 831.0 km
Inclination: 74.1 °
Period: 100.5 minutes
Semi major axis: 7159 km
RCS: 0.0156 m2 (small)
Launch date: June 16, 1993
Source: Commonwealth of Independent States (former USSR) (CIS)
Launch site: PLESETSK MISSILE AND SPACE COMPLEX (PKMTR)

Note: This is SATELLITE DEBRIS
aabbcc
Your satellite tracking list
Your tracking list is empty




NASA's NSSDC Master Catalog

Two Line Element Set (TLE):
1 34035U 93036HW  20196.51442635 +.00000328 +00000-0 +12646-3 0  9999
2 34035 074.0726 028.3431 0059551 175.3335 213.9323 14.33150258595291
Source of the keplerian elements: AFSPC